SCP
0 0 0 0 0 0 0 0 0 0 0 0 0 0 0 0 0 0 0 0 0 0 0 0 0 0 0 0 0 0 0 0 0 0 0 0 0 0 0 0 0 0 0 0
0 0 0 0 0 0 0 0 0 0 0 0 0 0 0 0 0 0 0 0 0 0 0 0 0 0 0 0 0 0 0 0 0 0 0 0 0 0 0 0 0 0 0 0
0 0 0 0 0 0 0 0 0 0 0 0 0 0 0 0 0 0 0 0 0 0 0 0 0 0 0 0 0 0 0 0 0 0 0 0 0 0 0 0 0 0 0 0
0 0 0 0 0 0 0 0 0 0 0 0 0 0 0 0 0 0 0 0 0 0 0 0 0 0 0 0 0 0 0 0 0 0 0 0 0 0 0 0 0 0 0 0
0 0 0 0 0 0 0 0 0 0 0 0 0 0 0 0 0 0 0 0 0 0 0 0 0 0 0 0 0 0 0 0 0 0 0 0 0 0 0 0 0 0 0 0
0 0 0 0 0 0 0 0 0 0 0 0 0 0 0 0 0 0 0 0 0 0 0 0 0 0 0 0 0 0 0 0 0 0 0 0 0 0 0 0 0 0 0 0
0 0 0 0 0 0 0 0 0 0 0 0 0 0 0 0 0 0 0 0 0 0 0 0 0 0 0 0 0 0 0 0 0 0 0 0 0 0 0 0 0 0 0 0
0 0 0 0 0 0 0 0 0 0 0 0 0 0 0 0 0 0 0 0 0 0 0 0 0 0 0 0 0 0 0 0 0 0 0 0 0 0 0 0 0 0 0 0
0 0 0 0 0 0 0 0 0 0 0 0 0 0 0 0 0 0 0 0 0 0 0 0 0 0 0 0 0 0 0 0 0 0 0 0 0 0 0 0 0 0 0 0
0 0 0 0 0 0 0 0 0 0 0 0 0 0 0 0 0 0 0 0 0 0 0 0 0 0 0 0 0 0 0 0 0 0 0 0 0 0 0 0 0 0 0 0
0 0 0 0 0 0 0 0 0 0 0 0 0 0 0 0 0 0 0 0 0 0 0 0 0 0 0 0 0 0 0 0 0 0 0 0 0 0 0 0 0 0 0 0
0 0 0 0 0 0 0 0 0 0 0 0 0 0 0 0 0 0 0 0 0 0 0 0 0 0 0 0 0 0 0 0 0 0 0 0 0 0 0 0 0 0 0 0
0 0 0 0 0 0 0 0 0 0 0 0 0 0 0 0 0 0 0 0 0 0 0 0 0 0 0 0 0 0 0 0 0 0 0 0 0 0 0 0 0 0 0 0
0 0 0 0 0 0 0 0 0 0 0 0 0 0 0 0 0 0 0 0 0 0 0 0 0 0 0 0 0 0 0 0 0 0 0 0 0 0 0 0 0 0 0 0
0 0 0 0 0 0 0 0 0 0 0 0 0 0 0 0 0 0 -0 0 0 0 -0 -0 -0 0 0 0 0 0 0 0 0 0 0 0 0 0 0 0 0 0 0 0
0 0 0 0 0 0 0 0 0 0 0 0 0 0 0 0 0 0 0 0 0 0 0 -0 0 0 0 0 0 0 0 0 0 0 0 0 0 0 0 0 0 0 0 0
0 0 0 0 0 0 0 0 0 0 0 0 0 0 0 0 0 0 0 0 0 0 0 0 0 0 0 0 0 0 0 0 0 0 0 0 0 0 0 0 0 0 0 0
0 0 0 0 0 0 0 0 0 0 0 0 0 0 0 0 0 0 0 0 0 0 0 0 0 0 0 0 0 0 0 0 0 0 0 0 0 0 0 0 0 0 0 0
0 0 0 0 0 0 0 0 0 0 0 0 0 0 0 0 0 0 0 0 0 0 0 0 0 0 0 0 0 0 0 0 0 0 0 0 0 0 0 0 0 0 0 0
0 0 0 0 0 0 0 0 0 0 0 0 0 0 0 0 0 0 0 0 0 0 0 0 0 0 0 0 0 0 0 0 0 0 0 0 0 0 0 0 0 0 0 0
0 0 0 0 0 0 0 0 0 0 0 0 0 0 0 0 0 0 0 0 0 0 0 0 0 0 0 0 0 0 0 0 0 0 0 0 0 0 0 0 0 0 0 0
-0 0 0 0 0 0 0 0 0 0 0 0 0 0 0 0 0 0 0 0 0 0 0 0 0 0 0 0 0 0 0 0 0 0 0 0 0 0 0 0 0 0 0 0
0 0 0 0 0 0 -0 0 0 0 0 0 0 0 0 0 0 0 0 0 0 0 0 0 0 0 0 0 0 0 0 0 0 0 0 0 0 0 0 0 0 0 0 0
0 0 0 0 0 0 0 0 0 0 0 0 0 0 0 0 0 0 0 0 0 0 0 0 0 0 0 0 0 0 0 0 0 0 0 0 0 0 0 0 0 0 0 0
0 0 0 0 0 0 0 0 0 0 0 0 0 0 0 0 0 0 0 0 0 0 0 0 0 0 0 0 0 0 0 0 0 0 0 0 0 0 0 0 0 0 0 0
0 0 0 0 0 0 0 0 0 0 0 0 0 0 0 0 0 0 0 0 0 0 0 0 0 0 0 0 0 0 0 0 0 0 0 0 0 0 0 0 0 0 0 0
Wind_Speed_500mb
21 8 23 21 14 4 10 8 6 5 16 15 17 16 24 28 17 17 23 27 23 36 28 25 38 51 53 62 60 55 53 50 56 55 55 49 50 47 46 44 41 40 40 38
7 7 12 12 17 10 24 25 14 5 1 1 9 24 27 12 16 23 24 21 25 26 27 22 26 42 56 56 53 55 52 44 53 59 58 58 51 52 51 48 48 47 46 44
9 6 15 13 13 15 8 11 8 7 4 6 5 10 9 9 24 30 26 25 24 24 19 25 17 21 47 55 56 59 60 54 51 53 52 58 56 53 55 59 57 55 51 50
7 4 18 12 14 19 14 9 6 12 9 7 1 8 9 9 13 11 40 33 28 29 21 25 26 22 30 47 55 61 62 61 58 53 47 47 50 54 53 59 60 58 58 57
8 8 12 13 10 14 8 15 13 7 7 6 2 3 11 3 8 16 12 21 18 21 25 30 30 27 26 33 44 56 60 60 58 63 59 51 50 51 50 48 55 56 57 58
7 3 9 10 7 9 13 12 13 8 4 1 10 9 8 7 7 5 10 7 17 21 24 25 25 26 24 25 31 41 47 56 57 61 62 63 64 60 58 51 48 55 54 58
2 1 3 6 13 4 7 10 5 5 2 7 1 4 12 8 11 9 16 19 19 19 18 20 19 18 19 20 24 29 33 41 53 61 61 59 58 58 59 52 51 59 61 58
10 3 9 5 9 13 8 11 9 13 8 4 3 9 7 6 15 21 26 26 21 17 13 9 8 9 16 21 24 27 26 27 37 46 50 50 54 57 60 60 59 57 64 67
9 2 1 5 5 13 7 6 6 11 5 5 7 7 3 8 14 20 20 21 18 14 10 5 1 4 11 18 23 24 31 30 32 36 42 45 49 48 48 55 56 62 65 62
6 8 5 3 8 9 7 13 7 6 6 5 5 2 0 12 3 10 7 13 11 9 7 5 5 7 9 12 15 17 20 25 27 31 35 38 39 48 49 42 47 52 58 53
6 6 5 6 9 5 5 5 8 7 7 7 4 2 7 9 15 11 12 8 5 3 6 8 9 10 12 12 13 14 14 14 18 22 23 26 23 28 34 37 41 37 28 28
1 7 6 6 6 5 3 4 9 7 6 2 3 4 4 4 7 18 14 10 6 1 3 5 7 9 10 10 9 8 7 7 10 12 12 14 21 19 22 27 24 27 22 27
8 3 6 4 3 4 6 5 7 9 4 6 8 7 2 4 5 6 11 10 9 6 4 2 3 3 3 4 3 1 1 3 7 7 9 11 14 18 21 21 11 13 11 10
9 6 8 8 6 5 7 7 7 6 5 4 6 3 8 9 9 15 16 16 15 13 11 8 6 3 2 4 5 7 6 6 8 11 12 14 16 17 16 15 11 10 7 6
7 8 5 8 7 6 4 6 9 7 6 5 5 4 13 13 11 18 22 23 23 20 18 13 10 7 7 7 9 11 12 12 13 12 12 15 16 16 15 14 13 13 13 12
6 5 5 6 12 8 3 5 3 3 5 5 2 11 11 35 42 22 17 27 29 26 23 20 17 14 11 10 10 13 15 16 17 16 17 19 20 20 20 19 18 17 16 16
6 7 6 5 8 6 7 11 9 5 5 11 7 14 7 10 18 26 25 30 31 26 23 25 19 15 14 14 13 13 15 17 18 18 19 20 20 19 20 19 17 15 13 11
9 8 5 3 7 4 10 3 12 11 9 11 10 12 17 26 33 28 20 22 25 24 23 24 22 21 20 19 18 17 16 16 17 17 17 18 18 16 14 13 11 10 9 7
14 8 7 7 4 10 9 3 7 7 4 8 6 7 15 22 13 19 15 16 15 16 15 16 18 20 20 20 19 18 18 17 16 14 13 13 13 13 12 10 7 5 4 3
12 16 8 6 10 10 11 1 5 4 8 11 4 9 14 5 0 7 16 14 20 17 19 23 23 20 21 22 22 21 19 16 13 12 11 10 9 8 7 6 4 2 1 3
7 8 9 5 4 14 14 7 5 12 10 10 4 5 12 1 9 16 17 11 17 21 26 29 27 21 23 25 24 22 19 18 17 15 13 12 10 9 8 7 6 6 5 5
11 11 7 5 7 13 15 11 10 8 4 2 5 8 12 15 16 16 13 12 17 25 33 37 36 23 22 23 25 23 21 21 21 20 17 15 13 10 9 7 7 8 10 11
4 11 8 15 11 8 28 10 25 9 9 9 13 19 17 18 18 14 13 12 12 20 32 39 37 32 32 32 31 28 26 26 23 21 19 17 14 12 12 13 13 14 15 15
8 13 5 6 9 27 34 26 25 28 31 32 35 34 21 17 23 22 16 17 17 19 28 34 37 37 37 36 34 32 31 27 25 23 21 18 17 17 19 19 18 19 19 18
10 16 10 9 15 16 27 30 35 32 35 38 36 31 30 25 23 24 18 15 16 17 22 26 28 29 30 30 27 27 27 27 26 25 24 24 24 25 24 22 22 22 21 21
23 14 10 12 27 20 16 14 25 24 22 18 19 19 13 14 18 22 21 17 17 16 17 19 22 23 25 25 26 27 29 30 31 31 29 26 26 26 26 26 27 28 28 28
Wind_Direction_500mb
158 143 189 190 177 53 57 270 123 338 188 164 266 274 279 265 240 194 209 228 224 216 214 218 224 226 224 225 228 226 225 222 220 217 218 222 230 234 239 237 240 243 244 246
109 206 166 152 148 115 175 226 203 220 257 80 196 235 248 217 243 214 202 198 209 204 195 211 220 217 220 225 215 223 228 230 227 228 231 231 231 238 242 245 246 247 248 248
149 213 153 158 162 178 230 181 197 190 87 50 326 275 254 237 224 248 242 224 224 226 203 201 210 211 214 219 221 220 227 231 235 239 238 234 235 241 242 243 247 248 249 249
210 335 168 143 174 183 220 205 151 136 128 178 184 267 249 227 233 200 239 231 225 235 207 187 188 188 203 214 220 223 225 228 229 238 245 240 238 245 250 247 245 249 251 255
221 154 136 162 167 153 207 147 159 131 101 124 195 148 266 27 249 238 241 241 214 212 195 183 177 180 187 202 215 225 226 226 228 229 233 241 248 254 259 267 254 249 251 255
196 8 163 173 146 172 151 95 61 49 81 296 213 148 267 198 225 100 56 111 165 166 172 172 177 182 191 200 207 217 226 226 227 231 230 236 242 246 253 259 256 252 251 253
95 339 257 139 119 52 108 93 50 17 331 214 154 151 264 318 347 327 144 131 139 154 155 154 165 188 207 214 217 215 217 224 227 235 235 235 243 248 253 257 260 249 250 251
146 185 195 191 152 160 168 163 152 184 194 156 121 219 259 24 36 80 127 131 128 131 141 149 169 190 215 228 229 237 235 233 229 233 235 237 242 248 250 253 252 249 248 250
134 202 345 152 128 145 180 154 147 103 42 88 207 270 100 90 65 64 90 111 100 102 102 98 122 243 243 243 250 240 239 241 238 234 231 233 240 245 251 251 244 248 249 254
175 108 2 70 96 33 154 156 77 27 115 252 285 277 234 349 26 133 106 104 97 79 64 31 344 316 292 281 272 265 255 252 248 243 239 232 236 238 247 257 244 249 250 244
131 77 303 127 29 131 123 133 65 113 124 170 148 253 24 322 310 189 143 139 123 65 12 353 340 320 307 299 290 279 266 250 248 246 242 232 233 227 229 239 252 247 244 259
109 112 82 73 49 33 41 84 143 143 248 245 123 266 10 2 6 121 144 153 156 159 346 341 330 324 326 320 308 291 272 249 231 227 214 210 218 225 226 220 205 222 221 244
171 8 95 56 357 50 84 96 80 86 73 206 137 261 166 134 70 133 163 187 200 228 254 293 311 315 336 346 351 335 307 233 228 204 203 209 210 220 230 242 218 222 199 185
83 83 146 164 161 134 144 156 117 101 130 176 181 260 251 270 226 211 219 215 217 220 226 226 213 201 134 106 89 103 120 145 162 169 180 190 196 203 211 204 194 177 185 189
82 107 64 47 21 43 141 139 137 149 171 143 242 223 262 252 269 256 239 212 212 222 223 221 219 198 177 151 129 120 124 123 124 138 159 169 166 165 168 172 168 157 148 141
18 116 115 43 21 32 48 313 333 56 107 310 326 270 271 298 298 270 248 220 219 224 231 224 215 202 186 171 155 143 140 136 131 135 142 137 137 137 138 137 136 133 134 131
66 112 65 287 355 20 358 216 196 195 181 157 185 238 317 304 300 297 279 237 238 234 228 224 214 199 187 179 173 165 160 149 143 146 143 137 134 135 132 130 130 130 127 126
111 82 58 138 17 40 243 312 217 201 235 216 281 278 289 278 290 301 297 271 249 246 237 222 212 203 195 186 176 169 163 154 151 149 146 144 141 141 137 138 140 140 140 139
44 100 75 118 171 286 316 149 163 183 236 187 227 280 299 320 289 285 291 283 260 254 251 217 202 201 199 191 182 176 174 168 165 167 171 169 161 156 153 152 152 153 141 154
48 53 96 77 123 190 237 137 143 114 309 165 149 332 337 30 113 269 325 268 234 244 226 206 193 193 203 203 194 189 189 188 188 186 185 174 172 168 156 144 139 145 232 280
23 10 126 167 186 289 249 204 104 90 240 150 110 14 7 315 243 310 321 271 231 222 205 200 200 228 215 209 207 201 201 196 188 186 196 198 197 191 189 194 199 216 237 273
167 142 180 78 67 285 197 92 168 204 130 19 354 349 339 334 319 291 291 288 238 214 207 210 215 218 211 209 209 207 213 218 221 220 212 205 204 202 210 227 253 284 292 290
297 184 180 184 210 251 191 200 208 229 247 253 293 325 302 314 337 320 290 283 266 234 221 218 220 224 227 219 222 230 240 239 231 218 212 214 220 224 236 248 258 261 262 269
251 176 206 87 265 240 246 239 242 248 260 279 282 286 272 287 309 311 295 272 259 236 225 222 224 231 234 234 237 239 225 219 219 216 220 224 234 244 249 256 264 264 267 271
203 148 184 264 279 283 258 252 256 264 271 270 272 263 267 269 291 284 284 257 239 215 215 220 225 228 230 234 232 226 222 223 222 223 230 235 240 245 249 255 257 259 266 270
185 191 180 219 220 206 225 234 292 284 280 264 244 249 242 263 291 289 261 228 216 208 203 206 211 213 215 216 218 221 225 228 230 232 238 246 253 259 261 261 266 268 269 268
Wind_Speed_850mb
21 8 23 21 14 4 10 8 6 5 16 15 17 16 24 28 17 17 23 27 23 36 28 25 38 51 53 62 60 55 53 50 56 55 55 49 50 47 46 44 41 40 40 38
7 7 12 12 17 10 24 25 14 5 1 1 9 24 27 12 16 23 24 21 25 26 27 22 26 42 56 56 53 55 52 44 53 59 58 58 51 52 51 48 48 47 46 44
9 6 15 13 13 15 8 11 8 7 4 6 5 10 9 9 24 30 26 25 24 24 19 25 17 21 47 55 56 59 60 54 51 53 52 58 56 53 55 59 57 55 51 50
7 4 18 12 14 19 14 9 6 12 9 7 1 8 9 9 13 11 40 33 28 29 21 25 26 22 30 47 55 61 62 61 58 53 47 47 50 54 53 59 60 58 58 57
8 8 12 13 10 14 8 15 13 7 7 6 2 3 11 3 8 16 12 21 18 21 25 30 30 27 26 33 44 56 60 60 58 63 59 51 50 51 50 48 55 56 57 58
7 3 9 10 7 9 13 12 13 8 4 1 10 9 8 7 7 5 10 7 17 21 24 25 25 26 24 25 31 41 47 56 57 61 62 63 64 60 58 51 48 55 54 58
2 1 3 6 13 4 7 10 5 5 2 7 1 4 12 8 11 9 16 19 19 19 18 20 19 18 19 20 24 29 33 41 53 61 61 59 58 58 59 52 51 59 61 58
10 3 9 5 9 13 8 11 9 13 8 4 3 9 7 6 15 21 26 26 21 17 13 9 8 9 16 21 24 27 26 27 37 46 50 50 54 57 60 60 59 57 64 67
9 2 1 5 5 13 7 6 6 11 5 5 7 7 3 8 14 20 20 21 18 14 10 5 1 4 11 18 23 24 31 30 32 36 42 45 49 48 48 55 56 62 65 62
6 8 5 3 8 9 7 13 7 6 6 5 5 2 0 12 3 10 7 13 11 9 7 5 5 7 9 12 15 17 20 25 27 31 35 38 39 48 49 42 47 52 58 53
6 6 5 6 9 5 5 5 8 7 7 7 4 2 7 9 15 11 12 8 5 3 6 8 9 10 12 12 13 14 14 14 18 22 23 26 23 28 34 37 41 37 28 28
1 7 6 6 6 5 3 4 9 7 6 2 3 4 4 4 7 18 14 10 6 1 3 5 7 9 10 10 9 8 7 7 10 12 12 14 21 19 22 27 24 27 22 27
8 3 6 4 3 4 6 5 7 9 4 6 8 7 2 4 5 6 11 10 9 6 4 2 3 3 3 4 3 1 1 3 7 7 9 11 14 18 21 21 11 13 11 10
9 6 8 8 6 5 7 7 7 6 5 4 6 3 8 9 9 15 16 16 15 13 11 8 6 3 2 4 5 7 6 6 8 11 12 14 16 17 16 15 11 10 7 6
7 8 5 8 7 6 4 6 9 7 6 5 5 4 13 13 11 18 22 23 23 20 18 13 10 7 7 7 9 11 12 12 13 12 12 15 16 16 15 14 13 13 13 12
6 5 5 6 12 8 3 5 3 3 5 5 2 11 11 35 42 22 17 27 29 26 23 20 17 14 11 10 10 13 15 16 17 16 17 19 20 20 20 19 18 17 16 16
6 7 6 5 8 6 7 11 9 5 5 11 7 14 7 10 18 26 25 30 31 26 23 25 19 15 14 14 13 13 15 17 18 18 19 20 20 19 20 19 17 15 13 11
9 8 5 3 7 4 10 3 12 11 9 11 10 12 17 26 33 28 20 22 25 24 23 24 22 21 20 19 18 17 16 16 17 17 17 18 18 16 14 13 11 10 9 7
14 8 7 7 4 10 9 3 7 7 4 8 6 7 15 22 13 19 15 16 15 16 15 16 18 20 20 20 19 18 18 17 16 14 13 13 13 13 12 10 7 5 4 3
12 16 8 6 10 10 11 1 5 4 8 11 4 9 14 5 0 7 16 14 20 17 19 23 23 20 21 22 22 21 19 16 13 12 11 10 9 8 7 6 4 2 1 3
7 8 9 5 4 14 14 7 5 12 10 10 4 5 12 1 9 16 17 11 17 21 26 29 27 21 23 25 24 22 19 18 17 15 13 12 10 9 8 7 6 6 5 5
11 11 7 5 7 13 15 11 10 8 4 2 5 8 12 15 16 16 13 12 17 25 33 37 36 23 22 23 25 23 21 21 21 20 17 15 13 10 9 7 7 8 10 11
4 11 8 15 11 8 28 10 25 9 9 9 13 19 17 18 18 14 13 12 12 20 32 39 37 32 32 32 31 28 26 26 23 21 19 17 14 12 12 13 13 14 15 15
8 13 5 6 9 27 34 26 25 28 31 32 35 34 21 17 23 22 16 17 17 19 28 34 37 37 37 36 34 32 31 27 25 23 21 18 17 17 19 19 18 19 19 18
10 16 10 9 15 16 27 30 35 32 35 38 36 31 30 25 23 24 18 15 16 17 22 26 28 29 30 30 27 27 27 27 26 25 24 24 24 25 24 22 22 22 21 21
23 14 10 12 27 20 16 14 25 24 22 18 19 19 13 14 18 22 21 17 17 16 17 19 22 23 25 25 26 27 29 30 31 31 29 26 26 26 26 26 27 28 28 28
Wind_Direction_850mb
158 143 189 190 177 53 57 270 123 338 188 164 266 274 279 265 240 194 209 228 224 216 214 218 224 226 224 225 228 226 225 222 220 217 218 222 230 234 239 237 240 243 244 246
109 206 166 152 148 115 175 226 203 220 257 80 196 235 248 217 243 214 202 198 209 204 195 211 220 217 220 225 215 223 228 230 227 228 231 231 231 238 242 245 246 247 248 248
149 213 153 158 162 178 230 181 197 190 87 50 326 275 254 237 224 248 242 224 224 226 203 201 210 211 214 219 221 220 227 231 235 239 238 234 235 241 242 243 247 248 249 249
210 335 168 143 174 183 220 205 151 136 128 178 184 267 249 227 233 200 239 231 225 235 207 187 188 188 203 214 220 223 225 228 229 238 245 240 238 245 250 247 245 249 251 255
221 154 136 162 167 153 207 147 159 131 101 124 195 148 266 27 249 238 241 241 214 212 195 183 177 180 187 202 215 225 226 226 228 229 233 241 248 254 259 267 254 249 251 255
196 8 163 173 146 172 151 95 61 49 81 296 213 148 267 198 225 100 56 111 165 166 172 172 177 182 191 200 207 217 226 226 227 231 230 236 242 246 253 259 256 252 251 253
95 339 257 139 119 52 108 93 50 17 331 214 154 151 264 318 347 327 144 131 139 154 155 154 165 188 207 214 217 215 217 224 227 235 235 235 243 248 253 257 260 249 250 251
146 185 195 191 152 160 168 163 152 184 194 156 121 219 259 24 36 80 127 131 128 131 141 149 169 190 215 228 229 237 235 233 229 233 235 237 242 248 250 253 252 249 248 250
134 202 345 152 128 145 180 154 147 103 42 88 207 270 100 90 65 64 90 111 100 102 102 98 122 243 243 243 250 240 239 241 238 234 231 233 240 245 251 251 244 248 249 254
175 108 2 70 96 33 154 156 77 27 115 252 285 277 234 349 26 133 106 104 97 79 64 31 344 316 292 281 272 265 255 252 248 243 239 232 236 238 247 257 244 249 250 244
131 77 303 127 29 131 123 133 65 113 124 170 148 253 24 322 310 189 143 139 123 65 12 353 340 320 307 299 290 279 266 250 248 246 242 232 233 227 229 239 252 247 244 259
109 112 82 73 49 33 41 84 143 143 248 245 123 266 10 2 6 121 144 153 156 159 346 341 330 324 326 320 308 291 272 249 231 227 214 210 218 225 226 220 205 222 221 244
171 8 95 56 357 50 84 96 80 86 73 206 137 261 166 134 70 133 163 187 200 228 254 293 311 315 336 346 351 335 307 233 228 204 203 209 210 220 230 242 218 222 199 185
83 83 146 164 161 134 144 156 117 101 130 176 181 260 251 270 226 211 219 215 217 220 226 226 213 201 134 106 89 103 120 145 162 169 180 190 196 203 211 204 194 177 185 189
82 107 64 47 21 43 141 139 137 149 171 143 242 223 262 252 269 256 239 212 212 222 223 221 219 198 177 151 129 120 124 123 124 138 159 169 166 165 168 172 168 157 148 141
18 116 115 43 21 32 48 313 333 56 107 310 326 270 271 298 298 270 248 220 219 224 231 224 215 202 186 171 155 143 140 136 131 135 142 137 137 137 138 137 136 133 134 131
66 112 65 287 355 20 358 216 196 195 181 157 185 238 317 304 300 297 279 237 238 234 228 224 214 199 187 179 173 165 160 149 143 146 143 137 134 135 132 130 130 130 127 126
111 82 58 138 17 40 243 312 217 201 235 216 281 278 289 278 290 301 297 271 249 246 237 222 212 203 195 186 176 169 163 154 151 149 146 144 141 141 137 138 140 140 140 139
44 100 75 118 171 286 316 149 163 183 236 187 227 280 299 320 289 285 291 283 260 254 251 217 202 201 199 191 182 176 174 168 165 167 171 169 161 156 153 152 152 153 141 154
48 53 96 77 123 190 237 137 143 114 309 165 149 332 337 30 113 269 325 268 234 244 226 206 193 193 203 203 194 189 189 188 188 186 185 174 172 168 156 144 139 145 232 280
23 10 126 167 186 289 249 204 104 90 240 150 110 14 7 315 243 310 321 271 231 222 205 200 200 228 215 209 207 201 201 196 188 186 196 198 197 191 189 194 199 216 237 273
167 142 180 78 67 285 197 92 168 204 130 19 354 349 339 334 319 291 291 288 238 214 207 210 215 218 211 209 209 207 213 218 221 220 212 205 204 202 210 227 253 284 292 290
297 184 180 184 210 251 191 200 208 229 247 253 293 325 302 314 337 320 290 283 266 234 221 218 220 224 227 219 222 230 240 239 231 218 212 214 220 224 236 248 258 261 262 269
251 176 206 87 265 240 246 239 242 248 260 279 282 286 272 287 309 311 295 272 259 236 225 222 224 231 234 234 237 239 225 219 219 216 220 224 234 244 249 256 264 264 267 271
203 148 184 264 279 283 258 252 256 264 271 270 272 263 267 269 291 284 284 257 239 215 215 220 225 228 230 234 232 226 222 223 222 223 230 235 240 245 249 255 257 259 266 270
185 191 180 219 220 206 225 234 292 284 280 264 244 249 242 263 291 289 261 228 216 208 203 206 211 213 215 216 218 221 225 228 230 232 238 246 253 259 261 261 266 268 269 268